owner,sensor,date,latitude,longitude,vertical_datum,mass_concentration_of_oxygen_in_sea_water,qcFlag 
NERRS,ioos:station:NOAA.NERRS:marcewq:1,2019-09-01T00:15:00Z,28.1323,-97.0344,2.24,6.1,11111222 
NERRS,ioos:station:NOAA.NERRS:marcewq:1,2019-09-01T01:15:00Z,28.1323,-97.0344,2.27,6.6,11111222 
NERRS,ioos:station:NOAA.NERRS:marcewq:1,2019-09-01T02:15:00Z,28.1323,-97.0344,2.24,6.0,11111222 
NERRS,ioos:station:NOAA.NERRS:marcewq:1,2019-09-01T03:15:00Z,28.1323,-97.0344,2.23,6.2,11111222 
NERRS,ioos:station:NOAA.NERRS:marcewq:1,2019-09-01T04:15:00Z,28.1323,-97.0344,2.22,6.1,11111222 
NERRS,ioos:station:NOAA.NERRS:marcewq:1,2019-09-01T05:15:00Z,28.1323,-97.0344,2.2,6.2,11111222 
NERRS,ioos:station:NOAA.NERRS:marcewq:1,2019-09-01T06:15:00Z,28.1323,-97.0344,2.2,6.1,11111222 
NERRS,ioos:station:NOAA.NERRS:marcewq:1,2019-09-01T07:15:00Z,28.1323,-97.0344,2.19,5.8,11111222 
NERRS,ioos:station:NOAA.NERRS:marcewq:1,2019-09-01T08:15:00Z,28.1323,-97.0344,2.18,5.7,11111222 
NERRS,ioos:station:NOAA.NERRS:marcewq:1,2019-09-01T09:15:00Z,28.1323,-97.0344,2.17,6.1,11111222 
NERRS,ioos:station:NOAA.NERRS:marcewq:1,2019-09-01T10:15:00Z,28.1323,-97.0344,2.18,6.0,11111222 
NERRS,ioos:station:NOAA.NERRS:marcewq:1,2019-09-01T11:15:00Z,28.1323,-97.0344,2.18,5.1,11111222 
NERRS,ioos:station:NOAA.NERRS:marcewq:1,2019-09-01T12:15:00Z,28.1323,-97.0344,2.19,5.6,11111222 
NERRS,ioos:station:NOAA.NERRS:marcewq:1,2019-09-01T13:15:00Z,28.1323,-97.0344,2.2,5.1,11111222 
NERRS,ioos:station:NOAA.NERRS:marcewq:1,2019-09-01T14:15:00Z,28.1323,-97.0344,2.21,5.1,11111222 
NERRS,ioos:station:NOAA.NERRS:marcewq:1,2019-09-01T15:15:00Z,28.1323,-97.0344,2.21,5.0,11111222 
NERRS,ioos:station:NOAA.NERRS:marcewq:1,2019-09-01T16:15:00Z,28.1323,-97.0344,2.22,5.1,11111222 
NERRS,ioos:station:NOAA.NERRS:marcewq:1,2019-09-01T17:15:00Z,28.1323,-97.0344,2.22,4.6,11111222 
NERRS,ioos:station:NOAA.NERRS:marcewq:1,2019-09-01T19:15:00Z,28.1323,-97.0344,2.2,6.0,11111222 
NERRS,ioos:station:NOAA.NERRS:marcewq:1,2019-09-01T20:15:00Z,28.1323,-97.0344,2.18,6.2,11111222 
NERRS,ioos:station:NOAA.NERRS:marcewq:1,2019-09-01T21:15:00Z,28.1323,-97.0344,2.17,6.4,11111222 
NERRS,ioos:station:NOAA.NERRS:marcewq:1,2019-09-01T22:15:00Z,28.1323,-97.0344,2.2,6.3,11111222 
NERRS,ioos:station:NOAA.NERRS:marcewq:1,2019-09-01T23:15:00Z,28.1323,-97.0344,2.21,6.8,11111222 
NERRS,ioos:station:NOAA.NERRS:marcewq:1,2019-09-02T00:15:00Z,28.1323,-97.0344,2.23,7.1,11111222 
NERRS,ioos:station:NOAA.NERRS:marcewq:1,2019-09-02T02:15:00Z,28.1323,-97.0344,2.26,6.5,11111222 
NERRS,ioos:station:NOAA.NERRS:marcewq:1,2019-09-02T03:15:00Z,28.1323,-97.0344,2.26,6.1,11111222 
NERRS,ioos:station:NOAA.NERRS:marcewq:1,2019-09-02T04:15:00Z,28.1323,-97.0344,2.29,6.3,11111222 
NERRS,ioos:station:NOAA.NERRS:marcewq:1,2019-09-02T05:15:00Z,28.1323,-97.0344,2.28,6.3,11111222 
NERRS,ioos:station:NOAA.NERRS:marcewq:1,2019-09-02T06:15:00Z,28.1323,-97.0344,2.28,6.1,11111222 
NERRS,ioos:station:NOAA.NERRS:marcewq:1,2019-09-02T07:15:00Z,28.1323,-97.0344,2.25,5.9,11111222 
NERRS,ioos:station:NOAA.NERRS:marcewq:1,2019-09-02T08:15:00Z,28.1323,-97.0344,2.24,5.5,11111222 
NERRS,ioos:station:NOAA.NERRS:marcewq:1,2019-09-02T09:15:00Z,28.1323,-97.0344,2.25,5.7,11111222 
NERRS,ioos:station:NOAA.NERRS:marcewq:1,2019-09-02T10:15:00Z,28.1323,-97.0344,2.24,5.5,11111222 
NERRS,ioos:station:NOAA.NERRS:marcewq:1,2019-09-02T11:15:00Z,28.1323,-97.0344,2.25,5.8,11111222 
NERRS,ioos:station:NOAA.NERRS:marcewq:1,2019-09-02T12:15:00Z,28.1323,-97.0344,2.25,5.6,11111222 
NERRS,ioos:station:NOAA.NERRS:marcewq:1,2019-09-02T15:15:00Z,28.1323,-97.0344,2.28,5.2,11111222 
NERRS,ioos:station:NOAA.NERRS:marcewq:1,2019-09-02T16:15:00Z,28.1323,-97.0344,2.28,5.8,11111222 
NERRS,ioos:station:NOAA.NERRS:marcewq:1,2019-09-02T17:15:00Z,28.1323,-97.0344,2.27,5.9,11111222 
NERRS,ioos:station:NOAA.NERRS:marcewq:1,2019-09-02T18:15:00Z,28.1323,-97.0344,2.26,6.1,11111222 
NERRS,ioos:station:NOAA.NERRS:marcewq:1,2019-09-02T19:15:00Z,28.1323,-97.0344,2.25,6.0,11111222 
NERRS,ioos:station:NOAA.NERRS:marcewq:1,2019-09-02T20:15:00Z,28.1323,-97.0344,2.24,6.3,11111222 
NERRS,ioos:station:NOAA.NERRS:marcewq:1,2019-09-02T21:15:00Z,28.1323,-97.0344,2.24,6.6,11111222 
NERRS,ioos:station:NOAA.NERRS:marcewq:1,2019-09-02T22:15:00Z,28.1323,-97.0344,2.22,6.7,11111222 
NERRS,ioos:station:NOAA.NERRS:marcewq:1,2019-09-02T23:15:00Z,28.1323,-97.0344,2.25,6.9,11111222 
NERRS,ioos:station:NOAA.NERRS:marcewq:1,2019-09-03T00:15:00Z,28.1323,-97.0344,2.26,7.0,11111222 
NERRS,ioos:station:NOAA.NERRS:marcewq:1,2019-09-03T01:15:00Z,28.1323,-97.0344,2.29,6.9,11111222 
NERRS,ioos:station:NOAA.NERRS:marcewq:1,2019-09-03T02:15:00Z,28.1323,-97.0344,2.3,6.7,11111222 
NERRS,ioos:station:NOAA.NERRS:marcewq:1,2019-09-03T03:15:00Z,28.1323,-97.0344,2.31,6.5,11111222 
NERRS,ioos:station:NOAA.NERRS:marcewq:1,2019-09-03T04:15:00Z,28.1323,-97.0344,2.33,6.3,11111222 
NERRS,ioos:station:NOAA.NERRS:marcewq:1,2019-09-03T05:15:00Z,28.1323,-97.0344,2.32,6.3,11111222 
NERRS,ioos:station:NOAA.NERRS:marcewq:1,2019-09-03T06:15:00Z,28.1323,-97.0344,2.32,6.1,11111222 
NERRS,ioos:station:NOAA.NERRS:marcewq:1,2019-09-03T07:15:00Z,28.1323,-97.0344,2.33,6.1,11111222 
NERRS,ioos:station:NOAA.NERRS:marcewq:1,2019-09-03T08:15:00Z,28.1323,-97.0344,2.34,6.4,11111222 
NERRS,ioos:station:NOAA.NERRS:marcewq:1,2019-09-03T09:15:00Z,28.1323,-97.0344,2.33,5.8,11111222 
NERRS,ioos:station:NOAA.NERRS:marcewq:1,2019-09-03T10:15:00Z,28.1323,-97.0344,2.32,5.7,11111222 
NERRS,ioos:station:NOAA.NERRS:marcewq:1,2019-09-03T11:15:00Z,28.1323,-97.0344,2.35,6.1,11111222 
NERRS,ioos:station:NOAA.NERRS:marcewq:1,2019-09-03T12:15:00Z,28.1323,-97.0344,2.34,5.6,11111222 
NERRS,ioos:station:NOAA.NERRS:marcewq:1,2019-09-03T13:15:00Z,28.1323,-97.0344,2.35,5.3,11111222 
NERRS,ioos:station:NOAA.NERRS:marcewq:1,2019-09-03T14:15:00Z,28.1323,-97.0344,2.35,5.4,11111222 
NERRS,ioos:station:NOAA.NERRS:marcewq:1,2019-09-03T15:15:00Z,28.1323,-97.0344,2.36,5.2,11111222 
NERRS,ioos:station:NOAA.NERRS:marcewq:1,2019-09-03T16:15:00Z,28.1323,-97.0344,2.34,5.1,11111222 
NERRS,ioos:station:NOAA.NERRS:marcewq:1,2019-09-03T17:15:00Z,28.1323,-97.0344,2.3,5.4,11111222 
NERRS,ioos:station:NOAA.NERRS:marcewq:1,2019-09-03T18:15:00Z,28.1323,-97.0344,2.29,6.1,11111222 
NERRS,ioos:station:NOAA.NERRS:marcewq:1,2019-09-03T19:15:00Z,28.1323,-97.0344,2.28,6.2,11111222 
NERRS,ioos:station:NOAA.NERRS:marcewq:1,2019-09-03T20:15:00Z,28.1323,-97.0344,2.27,6.5,11111222 
NERRS,ioos:station:NOAA.NERRS:marcewq:1,2019-09-03T21:15:00Z,28.1323,-97.0344,2.27,6.5,11111222 
NERRS,ioos:station:NOAA.NERRS:marcewq:1,2019-09-03T22:15:00Z,28.1323,-97.0344,2.26,6.1,11111222 
NERRS,ioos:station:NOAA.NERRS:marcewq:1,2019-09-03T23:15:00Z,28.1323,-97.0344,2.28,6.1,11111222 
NERRS,ioos:station:NOAA.NERRS:marcewq:1,2019-09-04T00:15:00Z,28.1323,-97.0344,2.28,6.2,11111222 
NERRS,ioos:station:NOAA.NERRS:marcewq:1,2019-09-04T01:15:00Z,28.1323,-97.0344,2.3,4.4,11111222 
NERRS,ioos:station:NOAA.NERRS:marcewq:1,2019-09-04T02:15:00Z,28.1323,-97.0344,2.33,6.2,11111222 
NERRS,ioos:station:NOAA.NERRS:marcewq:1,2019-09-04T03:15:00Z,28.1323,-97.0344,2.34,6.3,11111222 
NERRS,ioos:station:NOAA.NERRS:marcewq:1,2019-09-04T04:15:00Z,28.1323,-97.0344,2.38,6.3,11111222 
NERRS,ioos:station:NOAA.NERRS:marcewq:1,2019-09-04T05:15:00Z,28.1323,-97.0344,2.39,6.1,11111222 
NERRS,ioos:station:NOAA.NERRS:marcewq:1,2019-09-04T06:15:00Z,28.1323,-97.0344,2.39,6.0,11111222 
NERRS,ioos:station:NOAA.NERRS:marcewq:1,2019-09-04T07:15:00Z,28.1323,-97.0344,2.41,6.1,11111222 
NERRS,ioos:station:NOAA.NERRS:marcewq:1,2019-09-04T08:15:00Z,28.1323,-97.0344,2.41,5.7,11111222 
NERRS,ioos:station:NOAA.NERRS:marcewq:1,2019-09-04T09:15:00Z,28.1323,-97.0344,2.42,5.6,11111222 
NERRS,ioos:station:NOAA.NERRS:marcewq:1,2019-09-04T10:15:00Z,28.1323,-97.0344,2.42,5.5,11111222 
NERRS,ioos:station:NOAA.NERRS:marcewq:1,2019-09-04T11:15:00Z,28.1323,-97.0344,2.44,5.6,11111222 
NERRS,ioos:station:NOAA.NERRS:marcewq:1,2019-09-04T12:15:00Z,28.1323,-97.0344,2.42,5.2,11111222 
NERRS,ioos:station:NOAA.NERRS:marcewq:1,2019-09-04T13:15:00Z,28.1323,-97.0344,2.44,5.3,11111222 
NERRS,ioos:station:NOAA.NERRS:marcewq:1,2019-09-04T14:15:00Z,28.1323,-97.0344,2.46,5.6,11111222 
NERRS,ioos:station:NOAA.NERRS:marcewq:1,2019-09-04T15:15:00Z,28.1323,-97.0344,2.48,5.4,11111222 
NERRS,ioos:station:NOAA.NERRS:marcewq:1,2019-09-04T16:15:00Z,28.1323,-97.0344,2.46,5.6,11111222 
NERRS,ioos:station:NOAA.NERRS:marcewq:1,2019-09-04T17:15:00Z,28.1323,-97.0344,2.42,5.6,11111222 
NERRS,ioos:station:NOAA.NERRS:marcewq:1,2019-09-04T18:15:00Z,28.1323,-97.0344,2.43,5.7,11111222 
NERRS,ioos:station:NOAA.NERRS:marcewq:1,2019-09-04T19:15:00Z,28.1323,-97.0344,2.41,5.8,11111222 
NERRS,ioos:station:NOAA.NERRS:marcewq:1,2019-09-04T20:15:00Z,28.1323,-97.0344,2.39,5.9,11111222 
NERRS,ioos:station:NOAA.NERRS:marcewq:1,2019-09-04T21:15:00Z,28.1323,-97.0344,2.41,5.9,11111222 
NERRS,ioos:station:NOAA.NERRS:marcewq:1,2019-09-04T22:15:00Z,28.1323,-97.0344,2.4,5.8,11111222 
NERRS,ioos:station:NOAA.NERRS:marcewq:1,2019-09-04T23:15:00Z,28.1323,-97.0344,2.4,5.8,11111222 
NERRS,ioos:station:NOAA.NERRS:marcewq:1,2019-09-05T00:15:00Z,28.1323,-97.0344,2.4,5.7,11111222 
NERRS,ioos:station:NOAA.NERRS:marcewq:1,2019-09-05T01:15:00Z,28.1323,-97.0344,2.4,6.0,11111222 
NERRS,ioos:station:NOAA.NERRS:marcewq:1,2019-09-05T02:15:00Z,28.1323,-97.0344,2.41,6.2,11111222 
NERRS,ioos:station:NOAA.NERRS:marcewq:1,2019-09-05T03:15:00Z,28.1323,-97.0344,2.44,6.0,11111222 
NERRS,ioos:station:NOAA.NERRS:marcewq:1,2019-09-05T04:15:00Z,28.1323,-97.0344,2.44,5.9,11111222 
NERRS,ioos:station:NOAA.NERRS:marcewq:1,2019-09-05T05:15:00Z,28.1323,-97.0344,2.45,5.5,11111222 
NERRS,ioos:station:NOAA.NERRS:marcewq:1,2019-09-05T06:15:00Z,28.1323,-97.0344,2.48,5.4,11111222 
NERRS,ioos:station:NOAA.NERRS:marcewq:1,2019-09-05T07:15:00Z,28.1323,-97.0344,2.5,5.7,11111222 
NERRS,ioos:station:NOAA.NERRS:marcewq:1,2019-09-05T08:15:00Z,28.1323,-97.0344,2.5,5.6,11111222 
NERRS,ioos:station:NOAA.NERRS:marcewq:1,2019-09-05T09:15:00Z,28.1323,-97.0344,2.54,5.4,11111222 
NERRS,ioos:station:NOAA.NERRS:marcewq:1,2019-09-05T10:15:00Z,28.1323,-97.0344,2.53,5.5,11111222 
NERRS,ioos:station:NOAA.NERRS:marcewq:1,2019-09-05T11:15:00Z,28.1323,-97.0344,2.58,5.5,11111222 
NERRS,ioos:station:NOAA.NERRS:marcewq:1,2019-09-05T12:15:00Z,28.1323,-97.0344,2.58,5.6,11111222 
NERRS,ioos:station:NOAA.NERRS:marcewq:1,2019-09-05T13:15:00Z,28.1323,-97.0344,2.64,5.4,11111222 
NERRS,ioos:station:NOAA.NERRS:marcewq:1,2019-09-05T14:15:00Z,28.1323,-97.0344,2.55,5.5,11111222 
NERRS,ioos:station:NOAA.NERRS:marcewq:1,2019-09-05T15:15:00Z,28.1323,-97.0344,2.58,5.4,11111222 
NERRS,ioos:station:NOAA.NERRS:marcewq:1,2019-09-05T16:15:00Z,28.1323,-97.0344,2.55,5.7,11111222 
NERRS,ioos:station:NOAA.NERRS:marcewq:1,2019-09-05T17:15:00Z,28.1323,-97.0344,2.53,4.8,11111222 
NERRS,ioos:station:NOAA.NERRS:marcewq:1,2019-09-05T18:15:00Z,28.1323,-97.0344,2.52,5.8,11111222 
NERRS,ioos:station:NOAA.NERRS:marcewq:1,2019-09-05T19:15:00Z,28.1323,-97.0344,2.5,5.9,11111222 
NERRS,ioos:station:NOAA.NERRS:marcewq:1,2019-09-05T20:15:00Z,28.1323,-97.0344,2.48,6.8,11111222 
NERRS,ioos:station:NOAA.NERRS:marcewq:1,2019-09-05T21:15:00Z,28.1323,-97.0344,2.44,6.4,11111222 
NERRS,ioos:station:NOAA.NERRS:marcewq:1,2019-09-05T22:15:00Z,28.1323,-97.0344,2.43,7.0,11111222 
NERRS,ioos:station:NOAA.NERRS:marcewq:1,2019-09-05T23:15:00Z,28.1323,-97.0344,2.41,6.6,11111222 
NERRS,ioos:station:NOAA.NERRS:marcewq:1,2019-09-06T00:15:00Z,28.1323,-97.0344,2.41,7.2,11111222 
NERRS,ioos:station:NOAA.NERRS:marcewq:1,2019-09-06T01:15:00Z,28.1323,-97.0344,2.38,7.1,11111222 
NERRS,ioos:station:NOAA.NERRS:marcewq:1,2019-09-06T02:15:00Z,28.1323,-97.0344,2.38,6.2,11111222 
NERRS,ioos:station:NOAA.NERRS:marcewq:1,2019-09-06T03:15:00Z,28.1323,-97.0344,2.37,5.9,11111222 
NERRS,ioos:station:NOAA.NERRS:marcewq:1,2019-09-06T04:15:00Z,28.1323,-97.0344,2.37,5.5,11111222 
NERRS,ioos:station:NOAA.NERRS:marcewq:1,2019-09-06T06:15:00Z,28.1323,-97.0344,2.35,4.8,11111222 
NERRS,ioos:station:NOAA.NERRS:marcewq:1,2019-09-06T07:15:00Z,28.1323,-97.0344,2.36,4.8,11111222 
NERRS,ioos:station:NOAA.NERRS:marcewq:1,2019-09-06T08:15:00Z,28.1323,-97.0344,2.35,4.5,11111222 
NERRS,ioos:station:NOAA.NERRS:marcewq:1,2019-09-06T09:15:00Z,28.1323,-97.0344,2.33,4.5,11111222 
NERRS,ioos:station:NOAA.NERRS:marcewq:1,2019-09-06T10:15:00Z,28.1323,-97.0344,2.34,4.9,11111222 
NERRS,ioos:station:NOAA.NERRS:marcewq:1,2019-09-06T11:15:00Z,28.1323,-97.0344,2.34,5.0,11111222 
NERRS,ioos:station:NOAA.NERRS:marcewq:1,2019-09-06T12:15:00Z,28.1323,-97.0344,2.33,4.8,11111222 
NERRS,ioos:station:NOAA.NERRS:marcewq:1,2019-09-06T13:15:00Z,28.1323,-97.0344,2.33,5.0,11111222 
NERRS,ioos:station:NOAA.NERRS:marcewq:1,2019-09-06T14:15:00Z,28.1323,-97.0344,2.31,4.3,11111222 
NERRS,ioos:station:NOAA.NERRS:marcewq:1,2019-09-06T15:15:00Z,28.1323,-97.0344,2.31,4.9,11111222 
NERRS,ioos:station:NOAA.NERRS:marcewq:1,2019-09-06T16:15:00Z,28.1323,-97.0344,2.3,4.5,11111222 
NERRS,ioos:station:NOAA.NERRS:marcewq:1,2019-09-06T17:15:00Z,28.1323,-97.0344,2.29,5.8,11111222 
NERRS,ioos:station:NOAA.NERRS:marcewq:1,2019-09-06T18:15:00Z,28.1323,-97.0344,2.28,5.7,11111222 
NERRS,ioos:station:NOAA.NERRS:marcewq:1,2019-09-06T19:15:00Z,28.1323,-97.0344,2.27,6.2,11111222 
NERRS,ioos:station:NOAA.NERRS:marcewq:1,2019-09-06T20:15:00Z,28.1323,-97.0344,2.25,6.2,11111222 
NERRS,ioos:station:NOAA.NERRS:marcewq:1,2019-09-06T21:15:00Z,28.1323,-97.0344,2.22,6.6,11111222 
NERRS,ioos:station:NOAA.NERRS:marcewq:1,2019-09-06T22:15:00Z,28.1323,-97.0344,2.2,6.5,11111222 
NERRS,ioos:station:NOAA.NERRS:marcewq:1,2019-09-06T23:15:00Z,28.1323,-97.0344,2.2,6.9,11111222 
NERRS,ioos:station:NOAA.NERRS:marcewq:1,2019-09-07T00:15:00Z,28.1323,-97.0344,2.18,6.4,11111222 
NERRS,ioos:station:NOAA.NERRS:marcewq:1,2019-09-07T01:15:00Z,28.1323,-97.0344,2.18,6.4,11111222 
NERRS,ioos:station:NOAA.NERRS:marcewq:1,2019-09-07T02:15:00Z,28.1323,-97.0344,2.17,6.4,11111222 
NERRS,ioos:station:NOAA.NERRS:marcewq:1,2019-09-07T03:15:00Z,28.1323,-97.0344,2.19,6.1,11111222 
NERRS,ioos:station:NOAA.NERRS:marcewq:1,2019-09-07T04:15:00Z,28.1323,-97.0344,2.19,5.3,11111222 
NERRS,ioos:station:NOAA.NERRS:marcewq:1,2019-09-07T05:15:00Z,28.1323,-97.0344,2.19,5.3,11111222 
NERRS,ioos:station:NOAA.NERRS:marcewq:1,2019-09-07T06:15:00Z,28.1323,-97.0344,2.22,4.9,11111222 
NERRS,ioos:station:NOAA.NERRS:marcewq:1,2019-09-07T07:15:00Z,28.1323,-97.0344,2.23,4.1,11111222 
NERRS,ioos:station:NOAA.NERRS:marcewq:1,2019-09-07T08:15:00Z,28.1323,-97.0344,2.24,4.1,11111222 
NERRS,ioos:station:NOAA.NERRS:marcewq:1,2019-09-07T09:15:00Z,28.1323,-97.0344,2.25,3.8,11111222 
NERRS,ioos:station:NOAA.NERRS:marcewq:1,2019-09-07T10:15:00Z,28.1323,-97.0344,2.25,3.8,11111222 
NERRS,ioos:station:NOAA.NERRS:marcewq:1,2019-09-07T11:15:00Z,28.1323,-97.0344,2.27,3.0,11111222 
NERRS,ioos:station:NOAA.NERRS:marcewq:1,2019-09-07T12:15:00Z,28.1323,-97.0344,2.27,3.2,11111222 
NERRS,ioos:station:NOAA.NERRS:marcewq:1,2019-09-07T13:15:00Z,28.1323,-97.0344,2.29,5.2,11111222 
NERRS,ioos:station:NOAA.NERRS:marcewq:1,2019-09-07T14:15:00Z,28.1323,-97.0344,2.28,5.1,11111222 
NERRS,ioos:station:NOAA.NERRS:marcewq:1,2019-09-07T15:15:00Z,28.1323,-97.0344,2.29,6.1,11111222 
NERRS,ioos:station:NOAA.NERRS:marcewq:1,2019-09-07T16:15:00Z,28.1323,-97.0344,2.29,5.2,11111222 
NERRS,ioos:station:NOAA.NERRS:marcewq:1,2019-09-07T17:15:00Z,28.1323,-97.0344,2.26,6.1,11111222 
NERRS,ioos:station:NOAA.NERRS:marcewq:1,2019-09-07T18:15:00Z,28.1323,-97.0344,2.26,7.0,11111222 
NERRS,ioos:station:NOAA.NERRS:marcewq:1,2019-09-07T19:15:00Z,28.1323,-97.0344,2.22,6.5,11111222 
NERRS,ioos:station:NOAA.NERRS:marcewq:1,2019-09-07T20:15:00Z,28.1323,-97.0344,2.2,6.6,11111222 
NERRS,ioos:station:NOAA.NERRS:marcewq:1,2019-09-07T21:15:00Z,28.1323,-97.0344,2.19,7.1,11111222 
NERRS,ioos:station:NOAA.NERRS:marcewq:1,2019-09-07T22:15:00Z,28.1323,-97.0344,2.18,7.2,11111222 
NERRS,ioos:station:NOAA.NERRS:marcewq:1,2019-09-07T23:15:00Z,28.1323,-97.0344,2.17,7.0,11111222 
NERRS,ioos:station:NOAA.NERRS:marcewq:1,2019-09-08T00:15:00Z,28.1323,-97.0344,2.15,7.2,11111222 
NERRS,ioos:station:NOAA.NERRS:marcewq:1,2019-09-08T01:15:00Z,28.1323,-97.0344,2.15,7.6,11111222 
NERRS,ioos:station:NOAA.NERRS:marcewq:1,2019-09-08T02:15:00Z,28.1323,-97.0344,2.14,7.3,11111222 
NERRS,ioos:station:NOAA.NERRS:marcewq:1,2019-09-08T03:15:00Z,28.1323,-97.0344,2.13,6.6,11111222 
NERRS,ioos:station:NOAA.NERRS:marcewq:1,2019-09-08T04:15:00Z,28.1323,-97.0344,2.14,6.7,11111222 
NERRS,ioos:station:NOAA.NERRS:marcewq:1,2019-09-08T05:15:00Z,28.1323,-97.0344,2.15,6.5,11111222 
NERRS,ioos:station:NOAA.NERRS:marcewq:1,2019-09-08T06:15:00Z,28.1323,-97.0344,2.16,6.2,11111222 
NERRS,ioos:station:NOAA.NERRS:marcewq:1,2019-09-08T07:15:00Z,28.1323,-97.0344,2.16,6.1,11111222 
NERRS,ioos:station:NOAA.NERRS:marcewq:1,2019-09-08T08:15:00Z,28.1323,-97.0344,2.18,6.2,11111222 
NERRS,ioos:station:NOAA.NERRS:marcewq:1,2019-09-08T09:15:00Z,28.1323,-97.0344,2.19,6.0,11111222 
NERRS,ioos:station:NOAA.NERRS:marcewq:1,2019-09-08T10:15:00Z,28.1323,-97.0344,2.21,5.5,11111222 
NERRS,ioos:station:NOAA.NERRS:marcewq:1,2019-09-08T11:15:00Z,28.1323,-97.0344,2.21,5.2,11111222 
NERRS,ioos:station:NOAA.NERRS:marcewq:1,2019-09-08T12:15:00Z,28.1323,-97.0344,2.23,5.2,11111222 
NERRS,ioos:station:NOAA.NERRS:marcewq:1,2019-09-08T13:15:00Z,28.1323,-97.0344,2.24,5.2,11111222 
NERRS,ioos:station:NOAA.NERRS:marcewq:1,2019-09-08T14:15:00Z,28.1323,-97.0344,2.25,5.0,11111222 
NERRS,ioos:station:NOAA.NERRS:marcewq:1,2019-09-08T15:15:00Z,28.1323,-97.0344,2.26,5.1,11111222 
NERRS,ioos:station:NOAA.NERRS:marcewq:1,2019-09-08T16:15:00Z,28.1323,-97.0344,2.27,5.1,11111222 
NERRS,ioos:station:NOAA.NERRS:marcewq:1,2019-09-08T17:15:00Z,28.1323,-97.0344,2.27,5.4,11111222 
NERRS,ioos:station:NOAA.NERRS:marcewq:1,2019-09-08T18:15:00Z,28.1323,-97.0344,2.28,5.6,11111222 
NERRS,ioos:station:NOAA.NERRS:marcewq:1,2019-09-08T19:15:00Z,28.1323,-97.0344,2.27,5.7,11111222 
NERRS,ioos:station:NOAA.NERRS:marcewq:1,2019-09-08T20:15:00Z,28.1323,-97.0344,2.27,5.8,11111222 
NERRS,ioos:station:NOAA.NERRS:marcewq:1,2019-09-08T21:15:00Z,28.1323,-97.0344,2.26,6.1,11111222 
NERRS,ioos:station:NOAA.NERRS:marcewq:1,2019-09-08T22:15:00Z,28.1323,-97.0344,2.24,6.0,11111222 
NERRS,ioos:station:NOAA.NERRS:marcewq:1,2019-09-08T23:15:00Z,28.1323,-97.0344,2.23,6.2,11111222 
NERRS,ioos:station:NOAA.NERRS:marcewq:1,2019-09-09T00:15:00Z,28.1323,-97.0344,2.21,6.0,11111222 
NERRS,ioos:station:NOAA.NERRS:marcewq:1,2019-09-09T01:15:00Z,28.1323,-97.0344,2.2,6.7,11111222 
NERRS,ioos:station:NOAA.NERRS:marcewq:1,2019-09-09T02:15:00Z,28.1323,-97.0344,2.18,5.7,11111222 
NERRS,ioos:station:NOAA.NERRS:marcewq:1,2019-09-09T03:15:00Z,28.1323,-97.0344,2.17,5.4,11111222 
NERRS,ioos:station:NOAA.NERRS:marcewq:1,2019-09-09T04:15:00Z,28.1323,-97.0344,2.18,5.5,11111222 
NERRS,ioos:station:NOAA.NERRS:marcewq:1,2019-09-09T05:15:00Z,28.1323,-97.0344,2.18,5.2,11111222 
NERRS,ioos:station:NOAA.NERRS:marcewq:1,2019-09-09T06:15:00Z,28.1323,-97.0344,2.19,5.3,11111222 
NERRS,ioos:station:NOAA.NERRS:marcewq:1,2019-09-09T07:15:00Z,28.1323,-97.0344,2.2,5.3,11111222 
NERRS,ioos:station:NOAA.NERRS:marcewq:1,2019-09-09T08:15:00Z,28.1323,-97.0344,2.21,5.0,11111222 
NERRS,ioos:station:NOAA.NERRS:marcewq:1,2019-09-09T09:15:00Z,28.1323,-97.0344,2.22,5.0,11111222 
NERRS,ioos:station:NOAA.NERRS:marcewq:1,2019-09-09T10:15:00Z,28.1323,-97.0344,2.24,4.9,11111222 
NERRS,ioos:station:NOAA.NERRS:marcewq:1,2019-09-09T11:15:00Z,28.1323,-97.0344,2.25,4.7,11111222 
NERRS,ioos:station:NOAA.NERRS:marcewq:1,2019-09-09T12:15:00Z,28.1323,-97.0344,2.26,4.8,11111222 
NERRS,ioos:station:NOAA.NERRS:marcewq:1,2019-09-09T13:15:00Z,28.1323,-97.0344,2.27,4.7,11111222 
NERRS,ioos:station:NOAA.NERRS:marcewq:1,2019-09-09T14:15:00Z,28.1323,-97.0344,2.28,4.6,11111222 
NERRS,ioos:station:NOAA.NERRS:marcewq:1,2019-09-09T15:15:00Z,28.1323,-97.0344,2.3,4.6,11111222 
NERRS,ioos:station:NOAA.NERRS:marcewq:1,2019-09-09T16:15:00Z,28.1323,-97.0344,2.3,4.8,11111222 
NERRS,ioos:station:NOAA.NERRS:marcewq:1,2019-09-09T17:15:00Z,28.1323,-97.0344,2.3,4.7,11111222 
NERRS,ioos:station:NOAA.NERRS:marcewq:1,2019-09-09T21:15:00Z,28.1323,-97.0344,2.31,5.5,11111222 
NERRS,ioos:station:NOAA.NERRS:marcewq:1,2019-09-09T22:15:00Z,28.1323,-97.0344,2.3,5.7,11111222 
NERRS,ioos:station:NOAA.NERRS:marcewq:1,2019-09-09T23:15:00Z,28.1323,-97.0344,2.27,6.3,11111222 
NERRS,ioos:station:NOAA.NERRS:marcewq:1,2019-09-10T00:15:00Z,28.1323,-97.0344,2.26,5.8,11111222 
NERRS,ioos:station:NOAA.NERRS:marcewq:1,2019-09-10T01:15:00Z,28.1323,-97.0344,2.25,5.6,11111222 
NERRS,ioos:station:NOAA.NERRS:marcewq:1,2019-09-10T02:15:00Z,28.1323,-97.0344,2.23,5.5,11111222 
NERRS,ioos:station:NOAA.NERRS:marcewq:1,2019-09-10T03:15:00Z,28.1323,-97.0344,2.23,4.7,11111222 
NERRS,ioos:station:NOAA.NERRS:marcewq:1,2019-09-10T05:15:00Z,28.1323,-97.0344,2.23,4.2,11111222 
NERRS,ioos:station:NOAA.NERRS:marcewq:1,2019-09-10T06:15:00Z,28.1323,-97.0344,2.22,3.9,11111222 
NERRS,ioos:station:NOAA.NERRS:marcewq:1,2019-09-10T07:15:00Z,28.1323,-97.0344,2.23,4.0,11111222 
NERRS,ioos:station:NOAA.NERRS:marcewq:1,2019-09-10T08:15:00Z,28.1323,-97.0344,2.24,4.0,11111222 
NERRS,ioos:station:NOAA.NERRS:marcewq:1,2019-09-10T09:15:00Z,28.1323,-97.0344,2.25,4.0,11111222 
NERRS,ioos:station:NOAA.NERRS:marcewq:1,2019-09-10T10:15:00Z,28.1323,-97.0344,2.26,4.0,11111222 
NERRS,ioos:station:NOAA.NERRS:marcewq:1,2019-09-10T11:15:00Z,28.1323,-97.0344,2.28,3.9,11111222 
NERRS,ioos:station:NOAA.NERRS:marcewq:1,2019-09-10T12:15:00Z,28.1323,-97.0344,2.31,3.9,11111222 
NERRS,ioos:station:NOAA.NERRS:marcewq:1,2019-09-10T13:15:00Z,28.1323,-97.0344,2.32,3.8,11111222 
NERRS,ioos:station:NOAA.NERRS:marcewq:1,2019-09-10T14:15:00Z,28.1323,-97.0344,2.33,3.6,11111222 
NERRS,ioos:station:NOAA.NERRS:marcewq:1,2019-09-10T15:15:00Z,28.1323,-97.0344,2.33,3.8,11111222 
NERRS,ioos:station:NOAA.NERRS:marcewq:1,2019-09-10T16:15:00Z,28.1323,-97.0344,2.36,4.4,11111222 
NERRS,ioos:station:NOAA.NERRS:marcewq:1,2019-09-10T17:15:00Z,28.1323,-97.0344,2.37,4.4,11111222 
NERRS,ioos:station:NOAA.NERRS:marcewq:1,2019-09-10T18:15:00Z,28.1323,-97.0344,2.36,4.5,11111222 
NERRS,ioos:station:NOAA.NERRS:marcewq:1,2019-09-10T19:15:00Z,28.1323,-97.0344,2.37,4.6,11111222 
NERRS,ioos:station:NOAA.NERRS:marcewq:1,2019-09-10T20:15:00Z,28.1323,-97.0344,2.37,4.8,11111222 
NERRS,ioos:station:NOAA.NERRS:marcewq:1,2019-09-10T21:15:00Z,28.1323,-97.0344,2.36,4.9,11111222 
NERRS,ioos:station:NOAA.NERRS:marcewq:1,2019-09-10T22:15:00Z,28.1323,-97.0344,2.36,4.7,11111222 
NERRS,ioos:station:NOAA.NERRS:marcewq:1,2019-09-10T23:15:00Z,28.1323,-97.0344,2.3,4.6,11111222 
NERRS,ioos:station:NOAA.NERRS:marcewq:1,2019-09-11T00:15:00Z,28.1323,-97.0344,2.33,4.7,11111222 
NERRS,ioos:station:NOAA.NERRS:marcewq:1,2019-09-11T01:15:00Z,28.1323,-97.0344,2.32,4.8,11111222 
NERRS,ioos:station:NOAA.NERRS:marcewq:1,2019-09-11T02:15:00Z,28.1323,-97.0344,2.3,4.4,11111222 
NERRS,ioos:station:NOAA.NERRS:marcewq:1,2019-09-11T03:15:00Z,28.1323,-97.0344,2.31,4.4,11111222 
NERRS,ioos:station:NOAA.NERRS:marcewq:1,2019-09-11T04:15:00Z,28.1323,-97.0344,2.29,4.3,11111222 
NERRS,ioos:station:NOAA.NERRS:marcewq:1,2019-09-11T05:15:00Z,28.1323,-97.0344,2.29,4.1,11111222 
NERRS,ioos:station:NOAA.NERRS:marcewq:1,2019-09-11T06:15:00Z,28.1323,-97.0344,2.27,4.1,11111222 
NERRS,ioos:station:NOAA.NERRS:marcewq:1,2019-09-11T07:15:00Z,28.1323,-97.0344,2.28,4.0,11111222 
NERRS,ioos:station:NOAA.NERRS:marcewq:1,2019-09-11T08:15:00Z,28.1323,-97.0344,2.28,4.0,11111222 
NERRS,ioos:station:NOAA.NERRS:marcewq:1,2019-09-11T09:15:00Z,28.1323,-97.0344,2.29,4.0,11111222 
NERRS,ioos:station:NOAA.NERRS:marcewq:1,2019-09-11T10:15:00Z,28.1323,-97.0344,2.3,3.8,11111222 
NERRS,ioos:station:NOAA.NERRS:marcewq:1,2019-09-11T11:15:00Z,28.1323,-97.0344,2.32,3.7,11111222 
NERRS,ioos:station:NOAA.NERRS:marcewq:1,2019-09-11T12:15:00Z,28.1323,-97.0344,2.34,3.7,11111222 
NERRS,ioos:station:NOAA.NERRS:marcewq:1,2019-09-11T14:15:00Z,28.1323,-97.0344,2.37,3.7,11111222 
NERRS,ioos:station:NOAA.NERRS:marcewq:1,2019-09-11T15:15:00Z,28.1323,-97.0344,2.38,4.0,11111222 